contact: severine.martini@mio.osupytheas.fr, dominique.lefevre@mio.osupytheas.fr
Project:EMSO Ligure-ouest http://www.emso-fr.org/EMSO-France
Sensor Microcat Sea-Bird SBE37 SMP,  Serial 57510 
DOI : "https://doi.org/10.17882/97948" 
Title:EMSO Ligure Ouest : Data Bathybot capteur Microcat - deploiement 2023-04-28
Datetime,Profondeur,Latitude,Longitude,Temperature,Conductivite,Pression,Salinite
time,m,degree_north,degree_east,degree_C,S/m,db,PSU 
2023-11-22T00:00:49,2420,42.8014,5.9826,13.2999,4.33672,2453.528,36.0210
2023-11-22T00:03:49,2420,42.8014,5.9826,13.3001,4.33724,2453.491,36.0257
2023-11-22T00:06:49,2420,42.8014,5.9826,13.3010,4.33780,2453.514,36.0302
2023-11-22T00:09:49,2420,42.8014,5.9826,13.3007,4.33659,2453.477,36.0192
2023-11-22T00:12:49,2420,42.8014,5.9826,13.2981,4.33713,2453.537,36.0266
2023-11-22T00:15:49,2420,42.8014,5.9826,13.3008,4.33773,2453.537,36.0297
2023-11-22T00:18:49,2420,42.8014,5.9826,13.2996,4.33747,2453.537,36.0284
2023-11-22T00:21:49,2420,42.8014,5.9826,13.2987,4.33729,2453.537,36.0275
2023-11-22T00:24:49,2420,42.8014,5.9826,13.2993,4.33714,2453.559,36.0256
2023-11-22T00:27:49,2420,42.8014,5.9826,13.2993,4.33763,2453.559,36.0301
2023-11-22T00:30:50,2420,42.8014,5.9826,13.2993,4.33757,2453.559,36.0295
2023-11-22T00:33:49,2420,42.8014,5.9826,13.3008,4.33748,2453.514,36.0273
2023-11-22T00:36:49,2420,42.8014,5.9826,13.2993,4.33799,2453.537,36.0335
2023-11-22T00:39:49,2420,42.8014,5.9826,13.3003,4.33706,2453.559,36.0239
2023-11-22T00:42:49,2420,42.8014,5.9826,13.3011,4.33930,2453.537,36.0441
2023-11-22T00:45:49,2420,42.8014,5.9826,13.3010,4.33775,2453.491,36.0297
2023-11-22T00:48:49,2420,42.8014,5.9826,13.3015,4.33810,2453.528,36.0325
2023-11-22T00:51:49,2420,42.8014,5.9826,13.3018,4.33633,2453.559,36.0157
2023-11-22T00:54:49,2420,42.8014,5.9826,13.2982,4.33759,2453.559,36.0308
2023-11-22T00:57:49,2420,42.8014,5.9826,13.2982,4.33670,2453.537,36.0225
2023-11-22T01:00:50,2420,42.8014,5.9826,13.2979,4.33658,2453.551,36.0216
2023-11-22T01:03:49,2420,42.8014,5.9826,13.2979,4.33731,2453.522,36.0284
2023-11-22T01:06:49,2420,42.8014,5.9826,13.3017,4.33774,2453.551,36.0289
2023-11-22T01:09:49,2420,42.8014,5.9826,13.3009,4.33711,2453.537,36.0238
2023-11-22T01:12:49,2420,42.8014,5.9826,13.2996,4.33757,2453.544,36.0292
2023-11-22T01:15:49,2420,42.8014,5.9826,13.3000,4.33698,2453.537,36.0233
2023-11-22T01:18:49,2420,42.8014,5.9826,13.2994,4.33674,2453.559,36.0217
2023-11-22T01:21:49,2420,42.8014,5.9826,13.3006,4.33630,2453.559,36.0165
2023-11-22T01:24:49,2420,42.8014,5.9826,13.2986,4.33633,2453.551,36.0186
2023-11-22T01:27:49,2420,42.8014,5.9826,13.3011,4.33654,2453.514,36.0183
2023-11-22T01:30:49,2420,42.8014,5.9826,13.3012,4.33676,2453.559,36.0202
2023-11-22T01:33:49,2420,42.8014,5.9826,13.3005,4.33633,2453.559,36.0168
2023-11-22T01:36:49,2420,42.8014,5.9826,13.3014,4.33577,2453.544,36.0108
2023-11-22T01:39:49,2420,42.8014,5.9826,13.3004,4.33671,2453.582,36.0205
2023-11-22T01:42:49,2420,42.8014,5.9826,13.3020,4.33649,2453.544,36.0170
2023-11-22T01:45:49,2420,42.8014,5.9826,13.3006,4.33615,2453.559,36.0151
2023-11-22T01:48:49,2420,42.8014,5.9826,13.2996,4.33667,2453.559,36.0208
2023-11-22T01:51:49,2420,42.8014,5.9826,13.3012,4.33589,2453.559,36.0121
2023-11-22T01:54:49,2420,42.8014,5.9826,13.3002,4.33995,2453.559,36.0509
2023-11-22T01:57:49,2420,42.8014,5.9826,13.3008,4.33751,2453.537,36.0276
2023-11-22T02:00:49,2420,42.8014,5.9826,13.3005,4.33341,2453.582,35.9896
2023-11-22T02:03:49,2420,42.8014,5.9826,13.3001,4.33260,2453.582,35.9824
2023-11-22T02:06:49,2420,42.8014,5.9826,13.3012,4.33196,2453.537,35.9753
2023-11-22T02:09:49,2420,42.8014,5.9826,13.3009,4.33175,2453.582,35.9738
2023-11-22T02:12:49,2420,42.8014,5.9826,13.3002,4.33273,2453.582,35.9835
2023-11-22T02:15:49,2420,42.8014,5.9826,13.2991,4.33277,2453.559,35.9850
2023-11-22T02:18:49,2420,42.8014,5.9826,13.2982,4.33158,2453.559,35.9747
2023-11-22T02:21:49,2420,42.8014,5.9826,13.3011,4.33255,2453.559,35.9810
2023-11-22T02:24:49,2420,42.8014,5.9826,13.3008,4.33260,2453.559,35.9818
2023-11-22T02:27:49,2420,42.8014,5.9826,13.3006,4.33256,2453.596,35.9816
2023-11-22T02:30:49,2420,42.8014,5.9826,13.2980,4.33178,2453.574,35.9766
2023-11-22T02:33:49,2420,42.8014,5.9826,13.2976,4.33096,2453.604,35.9694
2023-11-22T02:36:49,2420,42.8014,5.9826,13.2980,4.33160,2453.537,35.9750
2023-11-22T02:39:49,2420,42.8014,5.9826,13.2985,4.33092,2453.559,35.9682
2023-11-22T02:42:49,2420,42.8014,5.9826,13.2998,4.33105,2453.582,35.9682
2023-11-22T02:45:49,2420,42.8014,5.9826,13.2982,4.33134,2453.567,35.9724
2023-11-22T02:48:49,2420,42.8014,5.9826,13.2984,4.33146,2453.544,35.9733
2023-11-22T02:51:49,2420,42.8014,5.9826,13.2985,4.33198,2453.559,35.9781
2023-11-22T02:54:50,2420,42.8014,5.9826,13.3002,4.33027,2453.559,35.9605
2023-11-22T02:57:49,2420,42.8014,5.9826,13.3000,4.33175,2453.567,35.9745
2023-11-22T03:00:49,2420,42.8014,5.9826,13.2991,4.33019,2453.574,35.9608
2023-11-22T03:03:50,2420,42.8014,5.9826,13.3000,4.32956,2453.582,35.9541
2023-11-22T03:06:49,2420,42.8014,5.9826,13.2980,4.32926,2453.559,35.9531
2023-11-22T03:09:49,2420,42.8014,5.9826,13.2996,4.33059,2453.574,35.9642
2023-11-22T03:12:49,2420,42.8014,5.9826,13.2998,4.33019,2453.544,35.9602
2023-11-22T03:15:49,2420,42.8014,5.9826,13.2994,4.32935,2453.559,35.9527
2023-11-22T03:18:49,2420,42.8014,5.9826,13.3010,4.32966,2453.582,35.9542
2023-11-22T03:21:49,2420,42.8014,5.9826,13.3002,4.32990,2453.559,35.9571
2023-11-22T03:24:49,2420,42.8014,5.9826,13.2994,4.32987,2453.514,35.9575
2023-11-22T03:27:49,2420,42.8014,5.9826,13.2996,4.32940,2453.604,35.9530
2023-11-22T03:30:49,2420,42.8014,5.9826,13.2998,4.32943,2453.559,35.9530
2023-11-22T03:33:49,2420,42.8014,5.9826,13.2987,4.32957,2453.559,35.9554
2023-11-22T03:36:49,2420,42.8014,5.9826,13.2983,4.32844,2453.559,35.9453
2023-11-22T03:39:49,2420,42.8014,5.9826,13.2980,4.32904,2453.567,35.9511
2023-11-22T03:42:49,2420,42.8014,5.9826,13.2982,4.32950,2453.559,35.9552
2023-11-22T03:45:49,2420,42.8014,5.9826,13.2985,4.32921,2453.582,35.9522
2023-11-22T03:48:49,2420,42.8014,5.9826,13.2995,4.32964,2453.559,35.9553
2023-11-22T03:51:49,2420,42.8014,5.9826,13.2990,4.32810,2453.537,35.9414
2023-11-22T03:54:49,2420,42.8014,5.9826,13.2985,4.32999,2453.544,35.9595
2023-11-22T03:57:50,2420,42.8014,5.9826,13.2978,4.32953,2453.559,35.9559
2023-11-22T04:00:49,2420,42.8014,5.9826,13.2984,4.32953,2453.559,35.9553
2023-11-22T04:03:49,2420,42.8014,5.9826,13.3000,4.32952,2453.582,35.9537
2023-11-22T04:06:49,2420,42.8014,5.9826,13.2991,4.32877,2453.559,35.9476
2023-11-22T04:09:49,2420,42.8014,5.9826,13.2983,4.32914,2453.544,35.9518
2023-11-22T04:12:49,2420,42.8014,5.9826,13.2980,4.32965,2453.559,35.9568
2023-11-22T04:15:49,2420,42.8014,5.9826,13.2980,4.33017,2453.559,35.9616
2023-11-22T04:18:49,2420,42.8014,5.9826,13.2982,4.32992,2453.537,35.9591
2023-11-22T04:21:49,2420,42.8014,5.9826,13.2979,4.33244,2453.582,35.9829
2023-11-22T04:24:50,2420,42.8014,5.9826,13.2982,4.33222,2453.604,35.9806
2023-11-22T04:27:49,2420,42.8014,5.9826,13.2982,4.33245,2453.596,35.9828
2023-11-22T04:30:49,2420,42.8014,5.9826,13.2979,4.33356,2453.559,35.9933
2023-11-22T04:33:49,2420,42.8014,5.9826,13.2982,4.33268,2453.537,35.9849
2023-11-22T04:36:49,2420,42.8014,5.9826,13.2986,4.33214,2453.582,35.9794
2023-11-22T04:39:49,2420,42.8014,5.9826,13.2978,4.33195,2453.522,35.9785
2023-11-22T04:42:49,2420,42.8014,5.9826,13.2979,4.33148,2453.559,35.9739
2023-11-22T04:45:49,2420,42.8014,5.9826,13.2975,4.33200,2453.514,35.9793
2023-11-22T04:48:49,2420,42.8014,5.9826,13.2978,4.33232,2453.559,35.9820
2023-11-22T04:51:49,2420,42.8014,5.9826,13.2979,4.33230,2453.544,35.9817
2023-11-22T04:54:49,2420,42.8014,5.9826,13.2979,4.33235,2453.522,35.9822
2023-11-22T04:57:49,2420,42.8014,5.9826,13.2979,4.33210,2453.522,35.9797
2023-11-22T05:00:49,2420,42.8014,5.9826,13.2976,4.33232,2453.544,35.9821
2023-11-22T05:03:49,2420,42.8014,5.9826,13.2976,4.33131,2453.559,35.9727
2023-11-22T05:06:49,2420,42.8014,5.9826,13.2975,4.33164,2453.559,35.9758
2023-11-22T05:09:49,2420,42.8014,5.9826,13.2975,4.33064,2453.559,35.9665
2023-11-22T05:12:49,2420,42.8014,5.9826,13.2974,4.33043,2453.514,35.9646
2023-11-22T05:15:49,2420,42.8014,5.9826,13.2982,4.33065,2453.522,35.9660
2023-11-22T05:18:49,2420,42.8014,5.9826,13.2979,4.33046,2453.537,35.9644
2023-11-22T05:21:49,2420,42.8014,5.9826,13.2978,4.33077,2453.537,35.9675
2023-11-22T05:24:49,2420,42.8014,5.9826,13.2979,4.33120,2453.537,35.9713
2023-11-22T05:27:50,2420,42.8014,5.9826,13.2977,4.33036,2453.537,35.9638
2023-11-22T05:30:49,2420,42.8014,5.9826,13.2974,4.33068,2453.559,35.9670
2023-11-22T05:33:49,2420,42.8014,5.9826,13.2972,4.33094,2453.522,35.9696
2023-11-22T05:36:49,2420,42.8014,5.9826,13.2977,4.33078,2453.537,35.9677
2023-11-22T05:39:49,2420,42.8014,5.9826,13.2975,4.33068,2453.537,35.9669
2023-11-22T05:42:49,2420,42.8014,5.9826,13.2975,4.33056,2453.544,35.9658
2023-11-22T05:45:49,2420,42.8014,5.9826,13.2979,4.33108,2453.537,35.9702
2023-11-22T05:48:49,2420,42.8014,5.9826,13.2979,4.33097,2453.537,35.9692
2023-11-22T05:51:49,2420,42.8014,5.9826,13.2969,4.33129,2453.559,35.9731
2023-11-22T05:54:49,2420,42.8014,5.9826,13.2974,4.33137,2453.537,35.9734
2023-11-22T05:57:49,2420,42.8014,5.9826,13.2974,4.33139,2453.514,35.9736
2023-11-22T06:00:50,2420,42.8014,5.9826,13.2978,4.33161,2453.514,35.9753
2023-11-22T06:03:49,2420,42.8014,5.9826,13.2971,4.33130,2453.514,35.9730
2023-11-22T06:06:49,2420,42.8014,5.9826,13.2972,4.33165,2453.537,35.9763
2023-11-22T06:09:49,2420,42.8014,5.9826,13.2978,4.33147,2453.514,35.9740
2023-11-22T06:12:49,2420,42.8014,5.9826,13.2975,4.33165,2453.537,35.9759
2023-11-22T06:15:49,2420,42.8014,5.9826,13.2975,4.33128,2453.514,35.9725
2023-11-22T06:18:49,2420,42.8014,5.9826,13.2977,4.33100,2453.514,35.9697
2023-11-22T06:21:49,2420,42.8014,5.9826,13.2978,4.33176,2453.537,35.9767
2023-11-22T06:24:49,2420,42.8014,5.9826,13.2973,4.33214,2453.537,35.9808
2023-11-22T06:27:49,2420,42.8014,5.9826,13.2981,4.33139,2453.537,35.9730
2023-11-22T06:30:49,2420,42.8014,5.9826,13.2976,4.33170,2453.537,35.9763
2023-11-22T06:33:49,2420,42.8014,5.9826,13.2985,4.33183,2453.514,35.9767
2023-11-22T06:36:49,2420,42.8014,5.9826,13.2975,4.33126,2453.537,35.9723
2023-11-22T06:39:49,2420,42.8014,5.9826,13.2975,4.33126,2453.514,35.9723
2023-11-22T06:42:49,2420,42.8014,5.9826,13.2977,4.33111,2453.499,35.9708
2023-11-22T06:45:49,2420,42.8014,5.9826,13.2973,4.33170,2453.514,35.9767
2023-11-22T06:48:49,2420,42.8014,5.9826,13.2978,4.33067,2453.537,35.9665
2023-11-22T06:51:50,2420,42.8014,5.9826,13.2978,4.33147,2453.514,35.9740
2023-11-22T06:54:49,2420,42.8014,5.9826,13.2975,4.33137,2453.514,35.9733
2023-11-22T06:57:49,2420,42.8014,5.9826,13.2975,4.33054,2453.514,35.9656
2023-11-22T07:00:49,2420,42.8014,5.9826,13.2977,4.33032,2453.514,35.9634
2023-11-22T07:03:49,2420,42.8014,5.9826,13.2977,4.33116,2453.491,35.9713
2023-11-22T07:06:49,2420,42.8014,5.9826,13.2978,4.33036,2453.537,35.9636
2023-11-22T07:09:49,2420,42.8014,5.9826,13.2975,4.33002,2453.514,35.9608
2023-11-22T07:12:49,2420,42.8014,5.9826,13.2976,4.33002,2453.491,35.9607
2023-11-22T07:15:49,2420,42.8014,5.9826,13.2973,4.33052,2453.522,35.9656
2023-11-22T07:18:49,2420,42.8014,5.9826,13.2981,4.33181,2453.499,35.9769
2023-11-22T07:21:49,2420,42.8014,5.9826,13.2978,4.33164,2453.522,35.9756
2023-11-22T07:24:49,2420,42.8014,5.9826,13.2976,4.33133,2453.537,35.9728
2023-11-22T07:27:49,2420,42.8014,5.9826,13.2980,4.33098,2453.514,35.9692
2023-11-22T07:30:49,2420,42.8014,5.9826,13.2973,4.33129,2453.514,35.9728
2023-11-22T07:33:49,2420,42.8014,5.9826,13.2979,4.33243,2453.491,35.9829
2023-11-22T07:36:49,2420,42.8014,5.9826,13.2984,4.33242,2453.522,35.9823
2023-11-22T07:39:49,2420,42.8014,5.9826,13.2977,4.33212,2453.514,35.9802
2023-11-22T07:42:49,2420,42.8014,5.9826,13.2976,4.33181,2453.499,35.9774
2023-11-22T07:45:49,2420,42.8014,5.9826,13.2978,4.33211,2453.514,35.9800
2023-11-22T07:48:49,2420,42.8014,5.9826,13.2984,4.34104,2453.491,36.0629
2023-11-22T07:51:49,2420,42.8014,5.9826,13.2982,4.34157,2453.528,36.0680
2023-11-22T07:54:49,2420,42.8014,5.9826,13.2978,4.34190,2453.514,36.0714
2023-11-22T07:57:49,2420,42.8014,5.9826,13.2979,4.34233,2453.506,36.0754
2023-11-22T08:00:49,2420,42.8014,5.9826,13.2975,4.34211,2453.514,36.0736
2023-11-22T08:03:49,2420,42.8014,5.9826,13.2977,4.34217,2453.528,36.0741
2023-11-22T08:06:49,2420,42.8014,5.9826,13.2974,4.34138,2453.514,36.0669
2023-11-22T08:09:49,2420,42.8014,5.9826,13.2980,4.34153,2453.522,36.0678
2023-11-22T08:12:49,2420,42.8014,5.9826,13.2980,4.34211,2453.514,36.0732
2023-11-22T08:15:49,2420,42.8014,5.9826,13.2979,4.34106,2453.514,36.0634
2023-11-22T08:18:49,2420,42.8014,5.9826,13.2979,4.34154,2453.491,36.0680
2023-11-22T08:21:49,2420,42.8014,5.9826,13.2979,4.34123,2453.514,36.0650
2023-11-22T08:24:49,2420,42.8014,5.9826,13.2979,4.34094,2453.499,36.0624
2023-11-22T08:27:49,2420,42.8014,5.9826,13.2977,4.34109,2453.537,36.0639
2023-11-22T08:30:49,2420,42.8014,5.9826,13.2977,4.34281,2453.514,36.0801
2023-11-22T08:33:49,2420,42.8014,5.9826,13.2979,4.34218,2453.514,36.0739
2023-11-22T08:36:50,2420,42.8014,5.9826,13.2980,4.34252,2453.514,36.0771
2023-11-22T08:39:49,2420,42.8014,5.9826,13.2975,4.34249,2453.491,36.0772
2023-11-22T08:42:49,2420,42.8014,5.9826,13.2979,4.34288,2453.491,36.0804
2023-11-22T08:45:49,2420,42.8014,5.9826,13.2976,4.34273,2453.469,36.0793
2023-11-22T08:48:49,2420,42.8014,5.9826,13.2979,4.34239,2453.514,36.0759
2023-11-22T08:51:49,2420,42.8014,5.9826,13.2979,4.34128,2453.537,36.0656
2023-11-22T08:54:49,2420,42.8014,5.9826,13.2975,4.34120,2453.491,36.0652
2023-11-22T08:57:49,2420,42.8014,5.9826,13.2978,4.34067,2453.514,36.0600
2023-11-22T09:00:49,2420,42.8014,5.9826,13.2979,4.34033,2453.499,36.0567
2023-11-22T09:03:49,2420,42.8014,5.9826,13.2975,4.34131,2453.514,36.0662
2023-11-22T09:06:49,2420,42.8014,5.9826,13.2979,4.34052,2453.491,36.0584
2023-11-22T09:09:49,2420,42.8014,5.9826,13.2981,4.34120,2453.514,36.0646
2023-11-22T09:12:49,2420,42.8014,5.9826,13.2976,4.33972,2453.537,36.0513
2023-11-22T09:15:49,2420,42.8014,5.9826,13.2977,4.34065,2453.477,36.0599
2023-11-22T09:18:49,2420,42.8014,5.9826,13.2976,4.34071,2453.537,36.0605
2023-11-22T09:21:49,2420,42.8014,5.9826,13.2982,4.34075,2453.537,36.0603
2023-11-22T09:24:49,2420,42.8014,5.9826,13.2975,4.34060,2453.477,36.0596
2023-11-22T09:27:49,2420,42.8014,5.9826,13.2977,4.33909,2453.491,36.0453
2023-11-22T09:30:50,2420,42.8014,5.9826,13.2975,4.33942,2453.491,36.0486
2023-11-22T09:33:49,2420,42.8014,5.9826,13.2976,4.33999,2453.537,36.0538
2023-11-22T09:36:49,2420,42.8014,5.9826,13.2972,4.33999,2453.477,36.0542
2023-11-22T09:39:49,2420,42.8014,5.9826,13.2976,4.33990,2453.491,36.0530
2023-11-22T09:42:49,2420,42.8014,5.9826,13.2978,4.33944,2453.514,36.0484
2023-11-22T09:45:49,2420,42.8014,5.9826,13.2978,4.33985,2453.514,36.0523
2023-11-22T09:48:49,2420,42.8014,5.9826,13.2978,4.34017,2453.514,36.0552
2023-11-22T09:51:49,2420,42.8014,5.9826,13.2975,4.33941,2453.514,36.0485
2023-11-22T09:54:49,2420,42.8014,5.9826,13.2980,4.33985,2453.514,36.0520
2023-11-22T09:57:50,2420,42.8014,5.9826,13.2982,4.33907,2453.491,36.0447
2023-11-22T10:00:49,2420,42.8014,5.9826,13.2976,4.33923,2453.514,36.0466
2023-11-22T10:03:49,2420,42.8014,5.9826,13.2980,4.33875,2453.537,36.0418
2023-11-22T10:06:49,2420,42.8014,5.9826,13.2977,4.33903,2453.537,36.0447
2023-11-22T10:09:49,2420,42.8014,5.9826,13.2977,4.33807,2453.537,36.0358
2023-11-22T10:12:49,2420,42.8014,5.9826,13.2981,4.33983,2453.537,36.0517
2023-11-22T10:15:49,2420,42.8014,5.9826,13.2976,4.33948,2453.499,36.0490
2023-11-22T10:18:49,2420,42.8014,5.9826,13.2979,4.33897,2453.491,36.0440
2023-11-22T10:21:49,2420,42.8014,5.9826,13.2978,4.33940,2453.537,36.0481
2023-11-22T10:24:50,2420,42.8014,5.9826,13.2978,4.33921,2453.537,36.0463
2023-11-22T10:27:49,2420,42.8014,5.9826,13.2978,4.33871,2453.559,36.0416
2023-11-22T10:30:49,2420,42.8014,5.9826,13.2975,4.33970,2453.514,36.0511
2023-11-22T10:33:49,2420,42.8014,5.9826,13.2978,4.33996,2453.537,36.0533
2023-11-22T10:36:49,2420,42.8014,5.9826,13.2976,4.33897,2453.537,36.0443
2023-11-22T10:39:49,2420,42.8014,5.9826,13.2976,4.33827,2453.582,36.0377
2023-11-22T10:42:49,2420,42.8014,5.9826,13.2980,4.33928,2453.537,36.0467
2023-11-22T10:45:49,2420,42.8014,5.9826,13.2978,4.33922,2453.537,36.0464
2023-11-22T10:48:49,2420,42.8014,5.9826,13.2973,4.33911,2453.544,36.0458
2023-11-22T10:51:49,2420,42.8014,5.9826,13.2979,4.33944,2453.559,36.0483
2023-11-22T10:54:49,2420,42.8014,5.9826,13.2980,4.33918,2453.537,36.0458
2023-11-22T10:57:49,2420,42.8014,5.9826,13.2980,4.33933,2453.522,36.0473
2023-11-22T11:00:49,2420,42.8014,5.9826,13.2979,4.33892,2453.559,36.0435
2023-11-22T11:03:49,2420,42.8014,5.9826,13.2980,4.33926,2453.537,36.0466
2023-11-22T11:06:49,2420,42.8014,5.9826,13.2980,4.34006,2453.537,36.0540
2023-11-22T11:09:49,2420,42.8014,5.9826,13.2982,4.33879,2453.559,36.0420
2023-11-22T11:12:49,2420,42.8014,5.9826,13.2975,4.33882,2453.559,36.0429
2023-11-22T11:15:49,2420,42.8014,5.9826,13.2979,4.33926,2453.537,36.0467
2023-11-22T11:18:49,2420,42.8014,5.9826,13.2981,4.33904,2453.604,36.0444
2023-11-22T11:21:50,2420,42.8014,5.9826,13.2975,4.33944,2453.582,36.0487
2023-11-22T11:24:49,2420,42.8014,5.9826,13.2981,4.33949,2453.559,36.0486
2023-11-22T11:27:49,2420,42.8014,5.9826,13.2983,4.33990,2453.559,36.0523
2023-11-22T11:30:49,2420,42.8014,5.9826,13.2981,4.33977,2453.559,36.0512
2023-11-22T11:33:49,2420,42.8014,5.9826,13.2977,4.33931,2453.582,36.0474
2023-11-22T11:36:49,2420,42.8014,5.9826,13.2979,4.33917,2453.582,36.0458
2023-11-22T11:39:49,2420,42.8014,5.9826,13.2979,4.33923,2453.604,36.0464
2023-11-22T11:42:49,2420,42.8014,5.9826,13.2979,4.33931,2453.604,36.0470
2023-11-22T11:45:49,2420,42.8014,5.9826,13.2983,4.33935,2453.582,36.0471
2023-11-22T11:48:49,2420,42.8014,5.9826,13.2979,4.33892,2453.582,36.0435
2023-11-22T11:51:49,2420,42.8014,5.9826,13.2981,4.33902,2453.567,36.0442
2023-11-22T11:54:49,2420,42.8014,5.9826,13.2982,4.33913,2453.604,36.0451
2023-11-22T11:57:49,2420,42.8014,5.9826,13.2979,4.33949,2453.604,36.0487
2023-11-22T12:00:49,2420,42.8014,5.9826,13.2979,4.33770,2453.582,36.0321
2023-11-22T12:03:49,2420,42.8014,5.9826,13.2984,4.33864,2453.582,36.0404
2023-11-22T12:06:49,2420,42.8014,5.9826,13.2979,4.33927,2453.612,36.0467
2023-11-22T12:09:49,2420,42.8014,5.9826,13.2986,4.34011,2453.582,36.0539
2023-11-22T12:12:49,2420,42.8014,5.9826,13.2979,4.34022,2453.604,36.0556
2023-11-22T12:15:49,2420,42.8014,5.9826,13.2984,4.34014,2453.582,36.0544
2023-11-22T12:18:49,2420,42.8014,5.9826,13.2984,4.33871,2453.627,36.0410
2023-11-22T12:21:49,2420,42.8014,5.9826,13.2982,4.34003,2453.604,36.0536
2023-11-22T12:24:49,2420,42.8014,5.9826,13.2983,4.34031,2453.582,36.0561
2023-11-22T12:27:49,2420,42.8014,5.9826,13.2982,4.34076,2453.590,36.0604
2023-11-22T12:30:49,2420,42.8014,5.9826,13.2980,4.34072,2453.649,36.0602
2023-11-22T12:33:49,2420,42.8014,5.9826,13.2980,4.34084,2453.604,36.0613
2023-11-22T12:36:49,2420,42.8014,5.9826,13.2981,4.34027,2453.604,36.0558
2023-11-22T12:39:49,2420,42.8014,5.9826,13.2978,4.34114,2453.627,36.0643
2023-11-22T12:42:49,2420,42.8014,5.9826,13.2979,4.34102,2453.657,36.0630
2023-11-22T12:45:49,2420,42.8014,5.9826,13.2982,4.34100,2453.627,36.0626
2023-11-22T12:48:49,2420,42.8014,5.9826,13.2979,4.34091,2453.627,36.0620
2023-11-22T12:51:49,2420,42.8014,5.9826,13.2982,4.34041,2453.590,36.0571
2023-11-22T12:54:50,2420,42.8014,5.9826,13.2982,4.34154,2453.649,36.0677
2023-11-22T12:57:49,2420,42.8014,5.9826,13.2983,4.34100,2453.627,36.0625
2023-11-22T13:00:49,2420,42.8014,5.9826,13.2982,4.34174,2453.649,36.0696
2023-11-22T13:03:49,2420,42.8014,5.9826,13.2979,4.34139,2453.627,36.0665
2023-11-22T13:06:49,2420,42.8014,5.9826,13.2979,4.34124,2453.649,36.0651
2023-11-22T13:09:49,2420,42.8014,5.9826,13.2979,4.34154,2453.657,36.0679
2023-11-22T13:12:49,2420,42.8014,5.9826,13.2984,4.34180,2453.627,36.0698
2023-11-22T13:15:49,2420,42.8014,5.9826,13.2982,4.34138,2453.619,36.0662
2023-11-22T13:18:49,2420,42.8014,5.9826,13.2979,4.34188,2453.627,36.0711
2023-11-22T13:21:49,2420,42.8014,5.9826,13.2986,4.34172,2453.612,36.0689
2023-11-22T13:24:49,2420,42.8014,5.9826,13.2982,4.34182,2453.649,36.0703
2023-11-22T13:27:49,2420,42.8014,5.9826,13.2983,4.34162,2453.649,36.0683
2023-11-22T13:30:49,2420,42.8014,5.9826,13.2980,4.34197,2453.695,36.0718
2023-11-22T13:33:49,2420,42.8014,5.9826,13.2979,4.34107,2453.672,36.0634
2023-11-22T13:36:49,2420,42.8014,5.9826,13.2981,4.34156,2453.649,36.0679
2023-11-22T13:39:49,2420,42.8014,5.9826,13.2986,4.34105,2453.649,36.0627
2023-11-22T13:42:49,2420,42.8014,5.9826,13.2984,4.34200,2453.672,36.0717
2023-11-22T13:45:49,2420,42.8014,5.9826,13.2987,4.34484,2453.657,36.0980
2023-11-22T13:48:49,2420,42.8014,5.9826,13.2982,4.34416,2453.672,36.0921
2023-11-22T13:51:49,2420,42.8014,5.9826,13.2982,4.34423,2453.672,36.0927
2023-11-22T13:54:49,2420,42.8014,5.9826,13.2980,4.34574,2453.672,36.1070
2023-11-22T13:57:49,2420,42.8014,5.9826,13.2979,4.34642,2453.672,36.1135
2023-11-22T14:00:49,2420,42.8014,5.9826,13.2984,4.34673,2453.649,36.1159
2023-11-22T14:03:49,2420,42.8014,5.9826,13.2983,4.34543,2453.635,36.1039
2023-11-22T14:06:49,2420,42.8014,5.9826,13.2986,4.34834,2453.672,36.1308
2023-11-22T14:09:49,2420,42.8014,5.9826,13.2988,4.34833,2453.672,36.1305
2023-11-22T14:12:49,2420,42.8014,5.9826,13.2983,4.34857,2453.657,36.1333
2023-11-22T14:15:49,2420,42.8014,5.9826,13.2979,4.34745,2453.687,36.1231
2023-11-22T14:18:49,2420,42.8014,5.9826,13.2985,4.34696,2453.695,36.1180
2023-11-22T14:21:49,2420,42.8014,5.9826,13.2989,4.34688,2453.695,36.1169
2023-11-22T14:24:50,2420,42.8014,5.9826,13.2982,4.34707,2453.680,36.1193
2023-11-22T14:27:49,2420,42.8014,5.9826,13.2983,4.34705,2453.717,36.1190
2023-11-22T14:30:49,2420,42.8014,5.9826,13.2980,4.34622,2453.695,36.1115
2023-11-22T14:33:49,2420,42.8014,5.9826,13.2982,4.34805,2453.695,36.1285
2023-11-22T14:36:49,2420,42.8014,5.9826,13.2982,4.34774,2453.695,36.1255
2023-11-22T14:39:49,2420,42.8014,5.9826,13.2988,4.34748,2453.672,36.1226
2023-11-22T14:42:49,2420,42.8014,5.9826,13.2979,4.34721,2453.695,36.1208
2023-11-22T14:45:49,2420,42.8014,5.9826,13.2979,4.34711,2453.695,36.1199
2023-11-22T14:48:49,2420,42.8014,5.9826,13.2982,4.34780,2453.702,36.1261
2023-11-22T14:51:49,2420,42.8014,5.9826,13.2982,4.34764,2453.695,36.1246
2023-11-22T14:54:49,2420,42.8014,5.9826,13.2981,4.34650,2453.672,36.1140
2023-11-22T14:57:49,2420,42.8014,5.9826,13.2976,4.34617,2453.672,36.1114
2023-11-22T15:00:49,2420,42.8014,5.9826,13.2991,4.34613,2453.695,36.1097
2023-11-22T15:03:49,2420,42.8014,5.9826,13.2983,4.34858,2453.695,36.1333
2023-11-22T15:06:49,2420,42.8014,5.9826,13.2982,4.34823,2453.695,36.1301
2023-11-22T15:09:49,2420,42.8014,5.9826,13.2980,4.34756,2453.695,36.1240
2023-11-22T15:12:49,2420,42.8014,5.9826,13.2983,4.34729,2453.695,36.1212
2023-11-22T15:15:49,2420,42.8014,5.9826,13.2982,4.34738,2453.695,36.1222
2023-11-22T15:18:49,2420,42.8014,5.9826,13.2984,4.34762,2453.702,36.1242
2023-11-22T15:21:49,2420,42.8014,5.9826,13.2985,4.34797,2453.695,36.1274
2023-11-22T15:24:50,2420,42.8014,5.9826,13.2979,4.34718,2453.695,36.1206
2023-11-22T15:27:49,2420,42.8014,5.9826,13.2989,4.34676,2453.695,36.1157
2023-11-22T15:30:49,2420,42.8014,5.9826,13.2987,4.34781,2453.695,36.1257
2023-11-22T15:33:49,2420,42.8014,5.9826,13.2982,4.34718,2453.702,36.1203
2023-11-22T15:36:49,2420,42.8014,5.9826,13.2983,4.34730,2453.695,36.1213
2023-11-22T15:39:49,2420,42.8014,5.9826,13.2980,4.34698,2453.695,36.1186
2023-11-22T15:42:49,2420,42.8014,5.9826,13.2979,4.34691,2453.717,36.1180
2023-11-22T15:45:49,2420,42.8014,5.9826,13.2985,4.34577,2453.740,36.1069
2023-11-22T15:48:49,2420,42.8014,5.9826,13.2986,4.34704,2453.717,36.1187
2023-11-22T15:51:49,2420,42.8014,5.9826,13.2982,4.34795,2453.717,36.1276
2023-11-22T15:54:49,2420,42.8014,5.9826,13.2985,4.34704,2453.695,36.1188
2023-11-22T15:57:49,2420,42.8014,5.9826,13.2982,4.34851,2453.717,36.1327
2023-11-22T16:00:49,2420,42.8014,5.9826,13.2986,4.34681,2453.657,36.1165
2023-11-22T16:03:49,2420,42.8014,5.9826,13.2987,4.34726,2453.695,36.1206